 day,  time,  air_temp(C),  RH(%),  ground_temp10cm(C),  ground_temp20cm(C),  ground_temp40cm(C),  precipitation(mm/h),  Solar_Radiation(MJ/m2h),  lack, 
 09/12/01, 01:00,  -1.0, -9999,   4.3,   5.4,   6.4,   0.0,  0.00, 
 09/12/01, 02:00,  -1.4, -9999,   4.1,   5.3,   6.4,   0.0,  0.00, 
 09/12/01, 03:00,  -1.4, -9999,   4.0,   5.3,   6.5,   0.0,  0.00, 
 09/12/01, 04:00,  -1.8, -9999,   3.8,   5.2,   6.5,   0.0,  0.00, 
 09/12/01, 05:00,  -2.0, -9999,   3.7,   5.2,   6.5,   0.0,  0.00, 
 09/12/01, 06:00,  -1.7, -9999,   3.5,   5.1,   6.5,   0.0,  0.00, 
 09/12/01, 07:00,  -1.5, -9999,   3.3,   5.1,   6.5,   0.0,  0.00, 
 09/12/01, 08:00,  -0.3, -9999,   3.2,   5.0,   6.5,   0.0,  0.14, 
 09/12/01, 09:00,   3.3, -9999,   3.1,   4.9,   6.5,   0.0,  0.84, 
 09/12/01, 10:00,   4.7, -9999,   3.1,   4.9,   6.5,   0.0,  1.40, 
 09/12/01, 11:00,   4.6, -9999,   3.4,   4.8,   6.5,   0.0,  1.82, 
 09/12/01, 12:00,   5.4, -9999,   3.7,   4.9,   6.5,   0.0,  1.97, 
 09/12/01, 13:00,   6.1, -9999,   3.8,   4.7,   6.4,   0.0,  1.97, 
 09/12/01, 14:00,   7.3, -9999,   4.2,   4.7,   6.5,   0.0,  1.58, 
 09/12/01, 15:00,   6.1, -9999,   4.6,   4.8,   6.4,   0.0,  0.76, 
 09/12/01, 16:00,   5.6, -9999,   4.7,   4.9,   6.4,   0.0,  0.16, 
 09/12/01, 17:00,   4.4, -9999,   4.5,   4.9,   6.4,   0.0,  0.03, 
 09/12/01, 18:00,   3.6, -9999,   4.4,   4.9,   6.4,   0.0,  0.00, 
 09/12/01, 19:00,   1.6, -9999,   4.2,   4.9,   6.4,   0.0,  0.00, 
 09/12/01, 20:00,   1.4, -9999,   4.0,   4.9,   6.4,   0.0,  0.00, 
 09/12/01, 21:00,   2.1, -9999,   3.8,   4.9,   6.4,   0.0,  0.00, 
 09/12/01, 22:00,   1.1, -9999,   3.7,   4.9,   6.4,   0.0,  0.00, 
 09/12/01, 23:00,   0.0, -9999,   3.5,   4.9,   6.4,   0.5,  0.00, 
 09/12/02, 00:00,   0.6, -9999,   3.4,   4.9,   6.4,   0.0,  0.00, 
 09/12/02, 01:00,   2.0, -9999,   3.2,   4.8,   6.4,   0.0,  0.00, 
 09/12/02, 02:00,   1.2, -9999,   3.1,   4.8,   6.4,   0.0,  0.00, 
 09/12/02, 03:00,   2.1, -9999,   3.0,   4.7,   6.4,   0.0,  0.00, 
 09/12/02, 04:00,   1.0, -9999,   2.9,   4.7,   6.4,   0.0,  0.00, 
 09/12/02, 05:00,   1.1, -9999,   2.7,   4.6,   6.3,   0.0,  0.00, 
 09/12/02, 06:00,  -0.8, -9999,   2.6,   4.6,   6.3,   0.0,  0.00, 
 09/12/02, 07:00,  -0.1, -9999,   2.5,   4.5,   6.2,   0.0,  0.00, 
 09/12/02, 08:00,  -0.2, -9999,   2.4,   4.4,   6.2,   0.0,  0.12, 
 09/12/02, 09:00,   3.5, -9999,   2.4,   4.4,   6.3,   0.0,  0.85, 
 09/12/02, 10:00,   4.2, -9999,   2.4,   4.3,   6.2,   0.0,  1.44, 
 09/12/02, 11:00,   5.4, -9999,   2.6,   4.3,   6.3,   0.0,  1.85, 
 09/12/02, 12:00,   5.0, -9999,   2.9,   4.2,   6.2,   0.0,  2.03, 
 09/12/02, 13:00,   6.3, -9999,   3.0,   4.2,   6.2,   0.0,  2.01, 
 09/12/02, 14:00,   7.4, -9999,   3.4,   4.2,   6.2,   0.0,  1.48, 
 09/12/02, 15:00,   6.5, -9999,   3.9,   4.2,   6.3,   0.0,  0.76, 
 09/12/02, 16:00,   6.2, -9999,   4.1,   4.3,   6.3,   0.0,  0.14, 
 09/12/02, 17:00,   4.2, -9999,   3.9,   4.3,   6.1,   0.0,  0.02, 
 09/12/02, 18:00,   1.9, -9999,   3.8,   4.4,   6.2,   0.0,  0.00, 
 09/12/02, 19:00,   2.3, -9999,   3.6,   4.5,   6.2,   0.0,  0.00, 
 09/12/02, 20:00,   1.3, -9999,   3.4,   4.5,   6.2,   0.0,  0.00, 
 09/12/02, 21:00,   0.7, -9999,   3.3,   4.4,   6.2,   0.0,  0.00, 
 09/12/02, 22:00,   0.9, -9999,   3.2,   4.4,   6.2,   0.0,  0.00, 
 09/12/02, 23:00,   3.3, -9999,   3.0,   4.4,   6.2,   0.0,  0.00, 
 09/12/03, 00:00,   1.6, -9999,   2.9,   4.4,   6.1,   0.0,  0.00, 
 09/12/03, 01:00,   1.3, -9999,   2.8,   4.4,   6.2,   0.0,  0.00, 
 09/12/03, 02:00,   1.1, -9999,   2.7,   4.3,   6.2,   0.0,  0.00, 
 09/12/03, 03:00,   2.5, -9999,   2.6,   4.3,   6.2,   0.0,  0.00, 
 09/12/03, 04:00,   7.3, -9999,   2.5,   4.2,   6.1,   0.0,  0.00, 
 09/12/03, 05:00,   6.9, -9999,   2.5,   4.2,   6.1,   0.0,  0.00, 
 09/12/03, 06:00,   5.4, -9999,   2.5,   4.2,   6.1,   0.0,  0.00, 
 09/12/03, 07:00,   4.2, -9999,   2.5,   4.1,   6.1,   0.0,  0.00, 
 09/12/03, 08:00,   4.2, -9999,   2.6,   4.1,   6.1,   0.0,  0.00, 
 09/12/03, 09:00,   2.2, -9999,   2.5,   4.0,   6.1,   0.0,  0.04, 
 09/12/03, 10:00,   4.1, -9999,   2.7,   4.0,   6.0,   0.0,  0.14, 
 09/12/03, 11:00,   4.8, -9999,   2.9,   4.0,   6.1,   0.0,  0.31, 
 09/12/03, 12:00,   4.7, -9999,   3.1,   4.1,   6.1,   0.0,  0.30, 
 09/12/03, 13:00,   4.2, -9999,   3.3,   4.0,   6.0,   2.0,  0.20, 
 09/12/03, 14:00,   4.6, -9999,   3.5,   4.0,   6.1,   1.0,  0.16, 
 09/12/03, 15:00,   4.6, -9999,   3.7,   4.1,   6.0,   1.5,  0.13, 
 09/12/03, 16:00,   4.2, -9999,   3.8,   4.1,   5.9,   2.0,  0.04, 
 09/12/03, 17:00,   3.9, -9999,   3.8,   4.1,   6.0,   2.0,  0.00, 
 09/12/03, 18:00,   3.4, -9999,   3.9,   4.2,   6.0,   2.0,  0.00, 
 09/12/03, 19:00,   3.0, -9999,   3.9,   4.2,   6.0,   0.5,  0.00, 
 09/12/03, 20:00,   3.0, -9999,   3.9,   4.2,   5.9,   0.0,  0.00, 
 09/12/03, 21:00,   2.3, -9999,   3.8,   4.3,   5.9,   0.0,  0.00, 
 09/12/03, 22:00,   1.0, -9999,   3.8,   4.3,   5.8,   0.0,  0.00, 
 09/12/03, 23:00,   0.9, -9999,   3.8,   4.3,   5.9,   0.0,  0.00, 
 09/12/04, 00:00,   0.4, -9999,   3.7,   4.3,   5.9,   0.5,  0.00, 
 09/12/04, 01:00,   0.4, -9999,   3.6,   4.3,   5.9,   0.5,  0.00, 
 09/12/04, 02:00,   0.3, -9999,   3.5,   4.3,   5.8,   0.0,  0.00, 
 09/12/04, 03:00,   0.3, -9999,   3.5,   4.3,   5.8,   0.0,  0.00, 
 09/12/04, 04:00,   0.0, -9999,   3.4,   4.3,   5.7,   0.5,  0.00, 
 09/12/04, 05:00,   0.3, -9999,   3.3,   4.3,   5.8,   0.0,  0.00, 
 09/12/04, 06:00,  -0.2, -9999,   3.2,   4.3,   5.8,   1.5,  0.00, 
 09/12/04, 07:00,  -0.3, -9999,   3.2,   4.3,   5.7,   0.5,  0.00, 
 09/12/04, 08:00,  -0.3, -9999,   3.2,   4.3,   5.8,   0.0,  0.05, 
 09/12/04, 09:00,   0.0, -9999,   3.2,   4.2,   5.8,   0.5,  0.27, 
 09/12/04, 10:00,   0.4, -9999,   3.2,   4.2,   5.8,   0.0,  0.79, 
 09/12/04, 11:00,   0.7, -9999,   3.2,   4.2,   5.8,   0.0,  1.06, 
 09/12/04, 12:00,   1.3, -9999,   3.3,   4.2,   5.8,   0.0,  0.90, 
 09/12/04, 13:00,   1.7, -9999,   3.3,   4.2,   5.8,   0.0,  0.59, 
 09/12/04, 14:00,   1.1, -9999,   3.5,   4.2,   5.8,   0.0,  0.44, 
 09/12/04, 15:00,   0.8, -9999,   3.6,   4.2,   5.8,   0.0,  0.21, 
 09/12/04, 16:00,   0.6, -9999,   3.6,   4.2,   5.8,   0.0,  0.10, 
 09/12/04, 17:00,   0.4, -9999,   3.6,   4.2,   5.8,   0.0,  0.00, 
 09/12/04, 18:00,   0.0, -9999,   3.6,   4.2,   5.8,   0.0,  0.00, 
 09/12/04, 19:00,   0.0, -9999,   3.5,   4.2,   5.8,   0.5,  0.00, 
 09/12/04, 20:00,  -0.3, -9999,   3.5,   4.2,   5.8,   0.0,  0.00, 
 09/12/04, 21:00,  -0.3, -9999,   3.4,   4.2,   5.8,   0.0,  0.00, 
 09/12/04, 22:00,  -0.8, -9999,   3.4,   4.2,   5.8,   0.0,  0.00, 
 09/12/04, 23:00,   0.4, -9999,   3.3,   4.2,   5.8,   0.0,  0.00, 
 09/12/05, 00:00,   0.8, -9999,   3.2,   4.2,   5.8,   0.0,  0.00, 
 09/12/05, 01:00,   0.5, -9999,   3.1,   4.2,   5.7,   0.0,  0.00, 
 09/12/05, 02:00,   1.8, -9999,   3.0,   4.2,   5.7,   0.0,  0.00, 
 09/12/05, 03:00,   1.8, -9999,   3.0,   4.2,   5.7,   0.0,  0.00, 
 09/12/05, 04:00,   2.6, -9999,   3.0,   4.1,   5.7,   0.0,  0.00, 
 09/12/05, 05:00,   2.3, -9999,   3.0,   4.1,   5.7,   0.0,  0.00, 
 09/12/05, 06:00,   2.3, -9999,   3.0,   4.1,   5.7,   0.0,  0.00, 
 09/12/05, 07:00,   3.3, -9999,   3.1,   4.1,   5.7,   0.0,  0.00, 
 09/12/05, 08:00,   3.6, -9999,   3.1,   4.1,   5.7,   0.0,  0.03, 
 09/12/05, 09:00,   5.0, -9999,   3.1,   4.1,   5.7,   0.0,  0.42, 
 09/12/05, 10:00,   5.1, -9999,   3.1,   4.1,   5.7,   0.0,  0.63, 
 09/12/05, 11:00,   5.3, -9999,   3.3,   4.1,   5.8,   0.0,  0.38, 
 09/12/05, 12:00,   5.3, -9999,   3.4,   4.0,   5.7,   0.0,  0.31, 
 09/12/05, 13:00,   6.3, -9999,   3.6,   4.1,   5.7,   0.0,  0.53, 
 09/12/05, 14:00,   5.3, -9999,   3.8,   4.1,   5.7,   0.0,  0.36, 
 09/12/05, 15:00,   3.8, -9999,   3.9,   4.1,   5.7,   1.5,  0.07, 
 09/12/05, 16:00,   3.3, -9999,   4.0,   4.2,   5.7,   2.5,  0.03, 
 09/12/05, 17:00,   3.2, -9999,   4.0,   4.2,   5.7,   2.0,  0.00, 
 09/12/05, 18:00,   4.0, -9999,   4.0,   4.2,   5.7,   0.5,  0.00, 
 09/12/05, 19:00,   4.2, -9999,   3.9,   4.2,   5.6,   0.0,  0.00, 
 09/12/05, 20:00,   4.1, -9999,   3.9,   4.3,   5.6,   0.0,  0.00, 
 09/12/05, 21:00,   3.7, -9999,   3.9,   4.3,   5.6,   0.0,  0.00, 
 09/12/05, 22:00,   4.0, -9999,   3.9,   4.3,   5.6,   0.0,  0.00, 
 09/12/05, 23:00,   3.8, -9999,   3.8,   4.3,   5.6,   0.0,  0.00, 
 09/12/06, 00:00,   3.2, -9999,   3.8,   4.3,   5.6,   0.0,  0.00, 
 09/12/06, 01:00,   3.1, -9999,   3.7,   4.3,   5.6,   0.0,  0.00, 
 09/12/06, 02:00,   2.4, -9999,   3.7,   4.3,   5.6,   0.0,  0.00, 
 09/12/06, 03:00,   1.9, -9999,   3.6,   4.3,   5.6,   0.0,  0.00, 
 09/12/06, 04:00,   1.4, -9999,   3.4,   4.3,   5.6,   0.0,  0.00, 
 09/12/06, 05:00,   1.0, -9999,   3.4,   4.3,   5.6,   0.0,  0.00, 
 09/12/06, 06:00,   0.4, -9999,   3.2,   4.3,   5.6,   0.0,  0.00, 
 09/12/06, 07:00,   0.8, -9999,   3.1,   4.3,   5.6,   0.0,  0.00, 
 09/12/06, 08:00,   1.2, -9999,   3.1,   4.3,   5.6,   0.0,  0.03, 
 09/12/06, 09:00,   1.3, -9999,   3.0,   4.2,   5.6,   0.0,  0.19, 
 09/12/06, 10:00,   1.7, -9999,   3.1,   4.2,   5.6,   0.0,  0.34, 
 09/12/06, 11:00,   1.7, -9999,   3.2,   4.2,   5.6,   0.0,  0.36, 
 09/12/06, 12:00,   2.3, -9999,   3.3,   4.2,   5.6,   0.0,  0.53, 
 09/12/06, 13:00,   2.2, -9999,   3.6,   4.1,   5.6,   0.0,  1.41, 
 09/12/06, 14:00,   2.7, -9999,   3.8,   4.2,   5.6,   0.0,  1.00, 
 09/12/06, 15:00,   1.7, -9999,   4.0,   4.2,   5.6,   0.0,  0.38, 
 09/12/06, 16:00,   1.0, -9999,   4.1,   4.2,   5.6,   0.0,  0.23, 
 09/12/06, 17:00,   0.0, -9999,   3.9,   4.3,   5.6,   0.0,  0.04, 
 09/12/06, 18:00,  -0.8, -9999,   3.7,   4.3,   5.6,   0.0,  0.00, 
 09/12/06, 19:00,  -1.3, -9999,   3.5,   4.3,   5.6,   0.0,  0.00, 
 09/12/06, 20:00,  -0.9, -9999,   3.3,   4.3,   5.6,   0.0,  0.00, 
 09/12/06, 21:00,  -1.2, -9999,   3.1,   4.3,   5.6,   0.0,  0.00, 
 09/12/06, 22:00,  -1.3, -9999,   3.0,   4.3,   5.6,   0.0,  0.00, 
 09/12/06, 23:00,  -2.4, -9999,   2.9,   4.2,   5.6,   0.0,  0.00, 
 09/12/07, 00:00,  -2.8, -9999,   2.7,   4.2,   5.6,   0.0,  0.00, 
 09/12/07, 01:00,  -3.0, -9999,   2.6,   4.2,   5.6,   0.0,  0.00, 
 09/12/07, 02:00,  -3.3, -9999,   2.5,   4.1,   5.6,   0.0,  0.00, 
 09/12/07, 03:00,  -3.1, -9999,   2.4,   4.1,   5.6,   0.0,  0.00, 
 09/12/07, 04:00,  -3.2, -9999,   2.4,   4.0,   5.6,   0.0,  0.00, 
 09/12/07, 05:00,  -2.9, -9999,   2.3,   4.0,   5.6,   0.0,  0.00, 
 09/12/07, 06:00,  -3.2, -9999,   2.2,   3.9,   5.6,   0.0,  0.00, 
 09/12/07, 07:00,  -3.1, -9999,   2.2,   3.9,   5.6,   0.0,  0.00, 
 09/12/07, 08:00,  -3.1, -9999,   2.1,   3.8,   5.6,   0.0,  0.04, 
 09/12/07, 09:00,  -2.1, -9999,   2.1,   3.8,   5.6,   0.0,  0.36, 
 09/12/07, 10:00,  -1.5, -9999,   2.2,   3.8,   5.6,   0.0,  0.40, 
 09/12/07, 11:00,  -1.1, -9999,   2.2,   3.7,   5.5,   0.0,  0.40, 
 09/12/07, 12:00,  -1.1, -9999,   2.3,   3.7,   5.5,   0.0,  0.45, 
 09/12/07, 13:00,  -1.5, -9999,   2.4,   3.6,   5.5,   0.0,  0.78, 
 09/12/07, 14:00,  -1.6, -9999,   2.5,   3.6,   5.5,   0.0,  0.87, 
 09/12/07, 15:00,  -1.7, -9999,   2.6,   3.6,   5.5,   0.0,  0.68, 
 09/12/07, 16:00,  -2.5, -9999,   2.5,   3.6,   5.5,   0.5,  0.28, 
 09/12/07, 17:00,  -3.4, -9999,   2.5,   3.6,   5.5,   0.0,  0.01, 
 09/12/07, 18:00,  -3.9, -9999,   2.4,   3.6,   5.5,   0.0,  0.00, 
 09/12/07, 19:00,  -4.5, -9999,   2.4,   3.6,   5.5,   0.0,  0.00, 
 09/12/07, 20:00,  -5.1, -9999,   2.2,   3.6,   5.4,   0.0,  0.00, 
 09/12/07, 21:00,  -4.8, -9999,   2.0,   3.6,   5.4,   0.0,  0.00, 
 09/12/07, 22:00,  -5.2, -9999,   1.9,   3.6,   5.5,   0.0,  0.00, 
 09/12/07, 23:00,  -5.3, -9999,   1.8,   3.5,   5.3,   0.0,  0.00, 
 09/12/08, 00:00,  -7.1, -9999,   1.7,   3.5,   5.4,   0.0,  0.00, 
 09/12/08, 01:00,  -7.1, -9999,   1.7,   3.5,   5.3,   0.0,  0.00, 
 09/12/08, 02:00,  -7.5, -9999,   1.6,   3.4,   5.4,   0.0,  0.00, 
 09/12/08, 03:00,  -7.3, -9999,   1.5,   3.4,   5.4,   0.0,  0.00, 
 09/12/08, 04:00,  -7.3, -9999,   1.5,   3.3,   5.3,   0.0,  0.00, 
 09/12/08, 05:00,  -7.0, -9999,   1.4,   3.3,   5.4,   0.0,  0.00, 
 09/12/08, 06:00,  -6.4, -9999,   1.4,   3.3,   5.3,   0.0,  0.00, 
 09/12/08, 07:00,  -5.5, -9999,   1.3,   3.2,   5.4,   0.0,  0.00, 
 09/12/08, 08:00,  -3.9, -9999,   1.3,   3.2,   5.3,   0.0,  0.09, 
 09/12/08, 09:00,  -3.0, -9999,   1.3,   3.1,   5.3,   0.0,  0.80, 
 09/12/08, 10:00,  -1.9, -9999,   1.2,   3.1,   5.2,   0.0,  1.40, 
 09/12/08, 11:00,   2.3, -9999,   1.3,   3.1,   5.3,   0.0,  1.81, 
 09/12/08, 12:00,   2.6, -9999,   1.3,   3.0,   5.3,   0.0,  2.01, 
 09/12/08, 13:00,   3.3, -9999,   1.3,   3.0,   5.3,   0.0,  1.98, 
 09/12/08, 14:00,   4.2, -9999,   1.3,   3.0,   5.3,   0.0,  1.60, 
 09/12/08, 15:00,   4.3, -9999,   1.2,   3.0,   5.3,   0.0,  0.85, 
 09/12/08, 16:00,   4.2, -9999,   1.2,   2.9,   5.3,   0.0,  0.15, 
 09/12/08, 17:00,   2.4, -9999,   1.2,   2.9,   5.2,   0.0,  0.02, 
 09/12/08, 18:00,   0.8, -9999,   1.2,   2.9,   5.2,   0.0,  0.00, 
 09/12/08, 19:00,   2.9, -9999,   1.2,   2.8,   5.2,   0.0,  0.00, 
 09/12/08, 20:00,   2.3, -9999,   1.2,   2.8,   5.2,   0.0,  0.00, 
 09/12/08, 21:00,   3.2, -9999,   1.2,   2.8,   5.2,   0.0,  0.00, 
 09/12/08, 22:00,   2.7, -9999,   1.2,   2.8,   5.2,   0.0,  0.00, 
 09/12/08, 23:00,   2.4, -9999,   1.2,   2.7,   5.1,   0.0,  0.00, 
 09/12/09, 00:00,   2.4, -9999,   1.2,   2.7,   5.1,   0.0,  0.00, 
 09/12/09, 01:00,   0.0, -9999,   1.2,   2.7,   5.1,   0.0,  0.00, 
 09/12/09, 02:00,   0.4, -9999,   1.2,   2.7,   5.1,   0.0,  0.00, 
 09/12/09, 03:00,   0.5, -9999,   1.2,   2.7,   5.1,   0.0,  0.00, 
 09/12/09, 04:00,   2.5, -9999,   1.2,   2.7,   5.1,   0.0,  0.00, 
 09/12/09, 05:00,   3.2, -9999,   1.2,   2.7,   5.0,   0.0,  0.00, 
 09/12/09, 06:00,   2.5, -9999,   1.2,   2.6,   5.0,   0.0,  0.00, 
 09/12/09, 07:00,   2.5, -9999,   1.2,   2.6,   5.0,   0.0,  0.00, 
 09/12/09, 08:00,   2.2, -9999,   1.2,   2.6,   5.0,   0.0,  0.07, 
 09/12/09, 09:00,   2.6, -9999,   1.2,   2.6,   5.0,   0.0,  0.57, 
 09/12/09, 10:00,   3.5, -9999,   1.2,   2.6,   5.0,   0.0,  0.70, 
 09/12/09, 11:00,   2.7, -9999,   1.2,   2.6,   5.0,   0.0,  1.35, 
 09/12/09, 12:00,   4.2, -9999,   1.4,   2.6,   5.0,   0.0,  1.19, 
 09/12/09, 13:00,   5.0, -9999,   1.7,   2.6,   5.0,   0.0,  1.16, 
 09/12/09, 14:00,   4.4, -9999,   2.1,   2.6,   5.0,   0.0,  0.90, 
 09/12/09, 15:00,   3.9, -9999,   2.4,   2.6,   4.9,   0.0,  0.52, 
 09/12/09, 16:00,   3.0, -9999,   2.6,   2.7,   5.0,   0.0,  0.20, 
 09/12/09, 17:00,   2.6, -9999,   2.7,   2.8,   5.0,   0.0,  0.03, 
 09/12/09, 18:00,   1.7, -9999,   2.7,   2.9,   4.9,   0.0,  0.00, 
 09/12/09, 19:00,   1.5, -9999,   2.6,   3.0,   4.9,   0.0,  0.00, 
 09/12/09, 20:00,   1.1, -9999,   2.6,   3.1,   4.9,   0.0,  0.00, 
 09/12/09, 21:00,   1.4, -9999,   2.5,   3.0,   4.8,   0.0,  0.00, 
 09/12/09, 22:00,   1.4, -9999,   2.5,   3.1,   4.8,   0.0,  0.00, 
 09/12/09, 23:00,   1.5, -9999,   2.4,   3.1,   4.8,   0.0,  0.00, 
 09/12/10, 00:00,   1.0, -9999,   2.4,   3.1,   4.8,   0.0,  0.00, 
 09/12/10, 01:00,  -1.3, -9999,   2.4,   3.1,   4.8,   0.0,  0.00, 
 09/12/10, 02:00,  -1.3, -9999,   2.3,   3.1,   4.8,   0.0,  0.00, 
 09/12/10, 03:00,   0.9, -9999,   2.2,   3.1,   4.8,   0.0,  0.00, 
 09/12/10, 04:00,  -0.5, -9999,   2.1,   3.1,   4.8,   0.0,  0.00, 
 09/12/10, 05:00,  -1.3, -9999,   2.0,   3.1,   4.8,   0.0,  0.00, 
 09/12/10, 06:00,  -1.7, -9999,   1.9,   3.1,   4.9,   0.0,  0.00, 
 09/12/10, 07:00,  -2.0, -9999,   1.8,   3.1,   4.8,   0.0,  0.00, 
 09/12/10, 08:00,  -1.5, -9999,   1.8,   3.1,   4.8,   0.0,  0.08, 
 09/12/10, 09:00,   0.5, -9999,   1.7,   3.1,   4.8,   0.0,  0.51, 
 09/12/10, 10:00,   2.6, -9999,   1.7,   3.0,   4.8,   0.0,  0.87, 
 09/12/10, 11:00,   4.5, -9999,   1.7,   3.0,   4.9,   0.0,  1.65, 
 09/12/10, 12:00,   4.2, -9999,   2.0,   3.0,   4.8,   0.0,  1.00, 
 09/12/10, 13:00,   5.4, -9999,   2.3,   3.1,   4.9,   0.0,  1.24, 
 09/12/10, 14:00,   5.4, -9999,   2.8,   3.1,   4.9,   0.0,  1.46, 
 09/12/10, 15:00,   5.3, -9999,   3.2,   3.0,   4.9,   0.0,  0.62, 
 09/12/10, 16:00,   4.6, -9999,   3.3,   3.1,   4.9,   0.0,  0.23, 
 09/12/10, 17:00,   3.9, -9999,   3.3,   3.1,   4.8,   0.0,  0.03, 
 09/12/10, 18:00,   3.3, -9999,   3.3,   3.2,   4.8,   0.0,  0.00, 
 09/12/10, 19:00,   3.2, -9999,   3.3,   3.3,   4.8,   0.0,  0.00, 
 09/12/10, 20:00,   3.4, -9999,   3.2,   3.4,   4.8,   0.0,  0.00, 
 09/12/10, 21:00,   3.7, -9999,   3.2,   3.5,   4.9,   0.0,  0.00, 
 09/12/10, 22:00,   4.3, -9999,   3.2,   3.5,   4.9,   0.0,  0.00, 
 09/12/10, 23:00,   4.8, -9999,   3.2,   3.6,   4.9,   0.0,  0.00, 
 09/12/11, 00:00,   3.8, -9999,   3.2,   3.5,   4.8,   0.0,  0.00, 
 09/12/11, 01:00,   3.0, -9999,   3.2,   3.6,   4.9,   0.0,  0.00, 
 09/12/11, 02:00,   3.0, -9999,   3.2,   3.6,   4.8,   0.0,  0.00, 
 09/12/11, 03:00,   2.7, -9999,   3.2,   3.6,   4.9,   0.0,  0.00, 
 09/12/11, 04:00,   2.4, -9999,   3.2,   3.6,   4.9,   0.5,  0.00, 
 09/12/11, 05:00,   3.0, -9999,   3.2,   3.6,   4.8,   2.0,  0.00, 
 09/12/11, 06:00,   3.1, -9999,   3.2,   3.6,   4.8,   1.5,  0.00, 
 09/12/11, 07:00,   3.0, -9999,   3.2,   3.6,   4.8,   0.5,  0.00, 
 09/12/11, 08:00,   3.9, -9999,   3.2,   3.6,   4.9,   0.0,  0.00, 
 09/12/11, 09:00,   5.3, -9999,   3.2,   3.6,   4.9,   0.0,  0.05, 
 09/12/11, 10:00,   6.2, -9999,   3.3,   3.7,   4.9,   0.5,  0.13, 
 09/12/11, 11:00,   6.6, -9999,   3.4,   3.7,   4.9,   0.0,  0.18, 
 09/12/11, 12:00,   6.2, -9999,   3.5,   3.6,   5.0,   0.0,  0.16, 
 09/12/11, 13:00,   5.9, -9999,   3.6,   3.7,   4.9,   1.5,  0.21, 
 09/12/11, 14:00,   6.3, -9999,   3.8,   3.8,   4.9,   1.0,  0.16, 
 09/12/11, 15:00,   6.4, -9999,   3.8,   3.7,   5.0,   0.5,  0.16, 
 09/12/11, 16:00,   7.2, -9999,   3.9,   3.8,   5.0,   0.0,  0.13, 
 09/12/11, 17:00,   7.7, -9999,   4.0,   3.8,   4.9,   0.0,  0.00, 
 09/12/11, 18:00,   5.3, -9999,   4.0,   4.0,   4.9,   1.0,  0.00, 
 09/12/11, 19:00,   5.2, -9999,   4.1,   4.0,   5.0,   1.5,  0.00, 
 09/12/11, 20:00,   5.2, -9999,   4.1,   4.0,   5.0,   0.0,  0.00, 
 09/12/11, 21:00,   5.0, -9999,   4.1,   4.0,   5.0,   0.0,  0.00, 
 09/12/11, 22:00,   4.8, -9999,   4.1,   4.1,   4.9,   0.0,  0.00, 
 09/12/11, 23:00,   5.7, -9999,   4.1,   4.1,   4.9,   0.0,  0.00, 
 09/12/12, 00:00,   5.5, -9999,   4.0,   4.1,   4.9,   0.0,  0.00, 
 09/12/12, 01:00,   5.5, -9999,   4.0,   4.1,   4.9,   0.0,  0.00, 
 09/12/12, 02:00,   5.6, -9999,   4.0,   4.1,   5.0,   0.0,  0.00, 
 09/12/12, 03:00,   5.8, -9999,   4.1,   4.1,   5.0,   0.0,  0.00, 
 09/12/12, 04:00,   6.5, -9999,   4.1,   4.1,   4.9,   0.0,  0.00, 
 09/12/12, 05:00,   7.1, -9999,   4.0,   4.1,   5.0,   0.0,  0.00, 
 09/12/12, 06:00,   7.2, -9999,   4.0,   4.2,   5.0,   0.0,  0.00, 
 09/12/12, 07:00,   7.3, -9999,   4.0,   4.2,   4.9,   0.0,  0.00, 
 09/12/12, 08:00,   6.9, -9999,   4.0,   4.2,   5.0,   0.0,  0.01, 
 09/12/12, 09:00,   6.2, -9999,   4.1,   4.2,   4.9,   0.0,  0.18, 
 09/12/12, 10:00,   5.2, -9999,   4.2,   4.2,   5.0,   1.0,  0.17, 
 09/12/12, 11:00,   6.8, -9999,   4.3,   4.2,   5.0,   0.5,  1.23, 
 09/12/12, 12:00,   7.0, -9999,   4.6,   4.2,   5.0,   0.0,  1.09, 
 09/12/12, 13:00,   7.0, -9999,   4.9,   4.3,   5.0,   0.0,  0.89, 
 09/12/12, 14:00,   5.4, -9999,   5.1,   4.3,   5.0,   1.0,  0.25, 
 09/12/12, 15:00,   4.9, -9999,   5.2,   4.4,   5.0,   0.0,  0.15, 
 09/12/12, 16:00,   4.2, -9999,   5.2,   4.5,   5.0,   0.5,  0.24, 
 09/12/12, 17:00,   3.8, -9999,   5.2,   4.6,   5.1,   0.0,  0.03, 
 09/12/12, 18:00,   3.1, -9999,   5.1,   4.6,   5.1,   0.5,  0.00, 
 09/12/12, 19:00,   2.6, -9999,   5.0,   4.6,   5.0,   0.0,  0.00, 
 09/12/12, 20:00,   2.2, -9999,   4.9,   4.8,   5.0,   0.0,  0.00, 
 09/12/12, 21:00,   1.7, -9999,   4.8,   4.7,   5.1,   0.0,  0.00, 
 09/12/12, 22:00,   1.0, -9999,   4.6,   4.7,   5.1,   0.0,  0.00, 
 09/12/12, 23:00,   0.4, -9999,   4.5,   4.7,   5.1,   0.0,  0.00, 
 09/12/13, 00:00,  -0.1, -9999,   4.3,   4.7,   5.1,   0.0,  0.00, 
 09/12/13, 01:00,  -0.7, -9999,   4.1,   4.7,   5.1,   0.0,  0.00, 
 09/12/13, 02:00,  -1.4, -9999,   4.0,   4.7,   5.1,   0.0,  0.00, 
 09/12/13, 03:00,  -1.8, -9999,   3.8,   4.6,   5.1,   0.0,  0.00, 
 09/12/13, 04:00,  -2.0, -9999,   3.6,   4.6,   5.1,   0.0,  0.00, 
 09/12/13, 05:00,  -1.9, -9999,   3.5,   4.5,   5.2,   0.0,  0.00, 
 09/12/13, 06:00,  -2.1, -9999,   3.4,   4.5,   5.2,   0.0,  0.00, 
 09/12/13, 07:00,  -2.3, -9999,   3.3,   4.4,   5.2,   0.0,  0.00, 
 09/12/13, 08:00,  -2.5, -9999,   3.2,   4.4,   5.2,   0.0,  0.00, 
 09/12/13, 09:00,  -2.5, -9999,   3.2,   4.3,   5.2,   0.0,  0.01, 
 09/12/13, 10:00,  -2.1, -9999,   3.1,   4.3,   5.2,   0.0,  0.21, 
 09/12/13, 11:00,  -2.0, -9999,   3.1,   4.2,   5.2,   0.0,  0.35, 
 09/12/13, 12:00,  -1.8, -9999,   3.1,   4.2,   5.2,   0.0,  0.36, 
 09/12/13, 13:00,  -2.0, -9999,   3.2,   4.1,   5.2,   0.0,  0.34, 
 09/12/13, 14:00,  -1.5, -9999,   3.3,   4.1,   5.2,   0.0,  0.48, 
 09/12/13, 15:00,  -1.8, -9999,   3.4,   4.1,   5.2,   0.0,  0.38, 
 09/12/13, 16:00,  -1.9, -9999,   3.4,   4.1,   5.2,   0.0,  0.05, 
 09/12/13, 17:00,  -2.0, -9999,   3.4,   4.1,   5.2,   0.0,  0.00, 
 09/12/13, 18:00,  -1.9, -9999,   3.3,   4.1,   5.2,   0.0,  0.00, 
 09/12/13, 19:00,  -2.2, -9999,   3.2,   4.1,   5.2,   0.0,  0.00, 
 09/12/13, 20:00,  -2.1, -9999,   3.1,   4.1,   5.2,   0.0,  0.00, 
 09/12/13, 21:00,  -2.4, -9999,   3.1,   4.0,   5.2,   0.0,  0.00, 
 09/12/13, 22:00,  -2.3, -9999,   3.0,   4.0,   5.2,   0.0,  0.00, 
 09/12/13, 23:00,  -2.3, -9999,   3.0,   4.0,   5.2,   0.0,  0.00, 
 09/12/14, 00:00,  -2.1, -9999,   2.9,   4.1,   5.2,   0.0,  0.00, 
 09/12/14, 01:00,  -2.2, -9999,   2.9,   3.9,   5.2,   0.0,  0.00, 
 09/12/14, 02:00,  -2.2, -9999,   2.8,   4.0,   5.2,   0.0,  0.00, 
 09/12/14, 03:00,  -2.6, -9999,   2.8,   4.0,   5.2,   0.0,  0.00, 
 09/12/14, 04:00,  -2.9, -9999,   2.6,   3.9,   5.2,   0.0,  0.00, 
 09/12/14, 05:00,  -3.7, -9999,   2.6,   3.8,   5.2,   0.0,  0.00, 
 09/12/14, 06:00,  -3.5, -9999,   2.5,   3.8,   5.2,   0.0,  0.00, 
 09/12/14, 07:00,  -3.7, -9999,   2.4,   3.8,   5.2,   0.0,  0.00, 
 09/12/14, 08:00,  -3.3, -9999,   2.4,   3.7,   5.2,   0.0,  0.05, 
 09/12/14, 09:00,  -1.2, -9999,   2.3,   3.7,   5.2,   0.5,  0.71, 
 09/12/14, 10:00,   0.4, -9999,   2.2,   3.8,   5.2,   0.0,  1.28, 
 09/12/14, 11:00,   1.3, -9999,   2.3,   3.7,   5.2,   0.0,  1.74, 
 09/12/14, 12:00,   1.7, -9999,   2.5,   3.6,   5.1,   0.0,  0.98, 
 09/12/14, 13:00,   1.4, -9999,   2.7,   3.6,   5.1,   0.0,  0.70, 
 09/12/14, 14:00,   1.1, -9999,   2.9,   3.6,   5.1,   0.0,  0.32, 
 09/12/14, 15:00,   1.2, -9999,   3.1,   3.6,   5.1,   0.0,  0.51, 
 09/12/14, 16:00,   1.1, -9999,   3.1,   3.7,   5.1,   0.0,  0.31, 
 09/12/14, 17:00,  -1.0, -9999,   3.1,   3.6,   5.1,   0.0,  0.01, 
 09/12/14, 18:00,  -1.1, -9999,   3.0,   3.6,   5.2,   0.0,  0.00, 
 09/12/14, 19:00,  -2.1, -9999,   3.0,   3.7,   5.1,   1.0,  0.00, 
 09/12/14, 20:00,  -3.2, -9999,   2.9,   3.7,   5.1,   0.5,  0.00, 
 09/12/14, 21:00,  -4.0, -9999,   2.9,   3.7,   5.1,   0.0,  0.00, 
 09/12/14, 22:00,  -4.4, -9999,   2.8,   3.7,   5.1,   0.0,  0.00, 
 09/12/14, 23:00,  -4.9, -9999,   2.8,   3.7,   5.1,   0.0,  0.00, 
 09/12/15, 00:00,  -5.1, -9999,   2.7,   3.6,   5.1,   0.0,  0.00, 
 09/12/15, 01:00,  -5.2, -9999,   2.6,   3.6,   5.0,   0.0,  0.00, 
 09/12/15, 02:00,  -5.5, -9999,   2.5,   3.6,   5.0,   0.0,  0.00, 
 09/12/15, 03:00,  -5.8, -9999,   2.5,   3.6,   5.0,   0.0,  0.00, 
 09/12/15, 04:00,  -6.1, -9999,   2.4,   3.6,   5.0,   0.0,  0.00, 
 09/12/15, 05:00,  -6.3, -9999,   2.4,   3.6,   5.0,   0.0,  0.00, 
 09/12/15, 06:00,  -5.6, -9999,   2.3,   3.5,   5.0,   0.0,  0.00, 
 09/12/15, 07:00,  -4.7, -9999,   2.2,   3.5,   5.0,   0.0,  0.00, 
 09/12/15, 08:00,  -3.8, -9999,   2.2,   3.5,   5.0,   0.0,  0.05, 
 09/12/15, 09:00,  -1.8, -9999,   2.1,   3.5,   5.0,   0.0,  0.72, 
 09/12/15, 10:00,  -2.1, -9999,   2.1,   3.4,   5.0,   0.0,  0.84, 
 09/12/15, 11:00,  -1.5, -9999,   2.1,   3.4,   5.0,   0.0,  0.80, 
 09/12/15, 12:00,  -1.5, -9999,   2.1,   3.4,   5.0,   0.0,  0.96, 
 09/12/15, 13:00,  -1.1, -9999,   2.1,   3.4,   5.0,   0.0,  0.73, 
 09/12/15, 14:00,  -0.8, -9999,   2.1,   3.3,   5.0,   0.0,  0.48, 